SHT4D EGLL-EGAC

Flight info

Callsign SHT4D
Flight time N/A
Altitude 32000
Route ULTIB T420 TNT UL28 RODOL UM65 TENSO L603 BELOX DCT REMSI DCT NINEB
Aircraft A20N/M-SDE2E3FGHIRWXY/LB1

Departure

Time N/A
Airport London Heathrow Airport (EGLL)

Arrival

Time 2026-04-24 14:28
Airport George Best Belfast City Airport (EGAC)
Time Latitude Longitude Altitude Speed Heading
2026-04-24 13:58 53.48714 -2.09856 32291 ft 419 kts 330°
2026-04-24 13:58 53.53729 -2.14834 32279 ft 420 kts 326°
2026-04-24 13:59 53.58139 -2.21231 32296 ft 422 kts 314°
2026-04-24 13:59 53.61620 -2.29112 32282 ft 424 kts 302°
2026-04-24 14:00 53.64089 -2.38163 32279 ft 428 kts 294°
2026-04-24 14:00 53.66218 -2.47524 32302 ft 427 kts 293°
2026-04-24 14:01 53.68317 -2.56806 32299 ft 427 kts 294°
2026-04-24 14:01 53.70437 -2.66183 32288 ft 427 kts 293°
2026-04-24 14:02 53.72536 -2.75490 32291 ft 428 kts 293°
2026-04-24 14:02 53.74653 -2.84915 32298 ft 429 kts 293°
2026-04-24 14:03 53.76750 -2.94286 32301 ft 428 kts 293°
2026-04-24 14:03 53.78840 -3.03676 32309 ft 428 kts 293°
2026-04-24 14:04 53.80925 -3.13076 32313 ft 429 kts 293°
2026-04-24 14:04 53.83002 -3.22480 32311 ft 429 kts 293°
2026-04-24 14:05 53.85075 -3.31917 32168 ft 431 kts 293°
2026-04-24 14:05 53.86110 -3.36651 31914 ft 428 kts 293°
2026-04-24 14:05 53.87131 -3.41329 31622 ft 427 kts 293°
2026-04-24 14:06 53.88160 -3.46060 31178 ft 425 kts 293°
2026-04-24 14:06 53.89168 -3.50702 30573 ft 425 kts 293°
2026-04-24 14:06 53.90196 -3.55431 29811 ft 429 kts 293°
2026-04-24 14:06 53.91224 -3.60171 29078 ft 431 kts 293°
2026-04-24 14:07 53.92235 -3.64857 28563 ft 428 kts 293°
2026-04-24 14:07 53.93248 -3.69572 28005 ft 426 kts 292°
2026-04-24 14:07 53.94255 -3.74263 27464 ft 424 kts 292°
2026-04-24 14:07 53.95301 -3.78955 26938 ft 420 kts 294°
2026-04-24 14:08 53.96469 -3.83428 26397 ft 418 kts 298°
2026-04-24 14:08 53.97798 -3.87794 25843 ft 415 kts 301°
2026-04-24 14:08 53.99214 -3.92031 25294 ft 414 kts 302°
2026-04-24 14:08 54.00632 -3.96210 24759 ft 413 kts 302°
2026-04-24 14:09 54.02054 -4.00403 24222 ft 411 kts 302°
2026-04-24 14:09 54.03469 -4.04592 23662 ft 410 kts 302°
2026-04-24 14:09 54.04867 -4.08793 23123 ft 409 kts 300°
2026-04-24 14:09 54.06063 -4.13150 22606 ft 407 kts 294°
2026-04-24 14:10 54.06988 -4.17697 22128 ft 404 kts 288°
2026-04-24 14:10 54.07712 -4.22282 21657 ft 401 kts 286°
2026-04-24 14:10 54.08385 -4.26802 21212 ft 397 kts 285°
2026-04-24 14:10 54.09053 -4.31329 20760 ft 394 kts 285°
2026-04-24 14:11 54.09716 -4.35818 20316 ft 390 kts 285°
2026-04-24 14:11 54.10372 -4.40253 19868 ft 387 kts 285°
2026-04-24 14:11 54.11672 -4.49030 19008 ft 380 kts 285°
2026-04-24 14:12 54.12317 -4.53384 18562 ft 378 kts 285°
2026-04-24 14:12 54.12956 -4.57718 18127 ft 375 kts 285°
2026-04-24 14:12 54.13580 -4.61962 17703 ft 372 kts 285°
2026-04-24 14:12 54.14205 -4.66220 17266 ft 369 kts 284°
2026-04-24 14:13 54.14820 -4.70422 16833 ft 366 kts 284°
2026-04-24 14:13 54.15435 -4.74641 16402 ft 364 kts 284°
2026-04-24 14:13 54.16040 -4.78786 15987 ft 361 kts 284°
2026-04-24 14:13 54.16644 -4.82941 15529 ft 359 kts 284°
2026-04-24 14:14 54.17236 -4.87024 15101 ft 356 kts 284°
2026-04-24 14:14 54.17823 -4.91082 14697 ft 355 kts 284°
2026-04-24 14:14 54.18992 -4.99198 13810 ft 352 kts 284°
2026-04-24 14:15 54.19569 -5.03212 13366 ft 350 kts 284°
2026-04-24 14:15 54.20143 -5.07218 12919 ft 347 kts 284°
2026-04-24 14:15 54.20717 -5.11246 12504 ft 345 kts 284°
2026-04-24 14:15 54.21276 -5.15178 12057 ft 343 kts 284°
2026-04-24 14:16 54.21834 -5.19115 11641 ft 341 kts 284°
2026-04-24 14:16 54.22394 -5.23064 11188 ft 339 kts 283°
2026-04-24 14:16 54.22948 -5.26983 10744 ft 337 kts 283°
2026-04-24 14:17 54.24005 -5.34494 10423 ft 313 kts 283°
2026-04-24 14:17 54.24499 -5.38011 10320 ft 301 kts 283°
2026-04-24 14:17 54.25447 -5.44822 9697 ft 293 kts 283°
2026-04-24 14:18 54.25914 -5.48189 9315 ft 292 kts 283°
2026-04-24 14:18 54.26377 -5.51525 8922 ft 291 kts 283°
2026-04-24 14:18 54.26859 -5.54899 8530 ft 290 kts 286°
2026-04-24 14:18 54.27514 -5.58129 8151 ft 289 kts 293°
2026-04-24 14:19 54.28374 -5.61234 7797 ft 287 kts 297°
2026-04-24 14:19 54.29275 -5.64253 7419 ft 286 kts 297°
2026-04-24 14:19 54.30182 -5.67267 7046 ft 284 kts 296°
2026-04-24 14:19 54.31074 -5.70244 6682 ft 282 kts 296°
2026-04-24 14:20 54.31958 -5.73211 6299 ft 281 kts 296°
2026-04-24 14:20 54.32845 -5.76200 5927 ft 280 kts 296°
2026-04-24 14:20 54.33714 -5.79135 5557 ft 279 kts 296°
2026-04-24 14:20 54.34593 -5.82113 5190 ft 277 kts 296°
2026-04-24 14:21 54.35455 -5.85038 4852 ft 274 kts 296°
2026-04-24 14:21 54.36298 -5.87905 4675 ft 265 kts 296°
2026-04-24 14:21 54.37114 -5.90681 4469 ft 254 kts 296°
2026-04-24 14:21 54.37887 -5.93313 4136 ft 248 kts 296°
2026-04-24 14:22 54.38649 -5.95916 3954 ft 240 kts 296°
2026-04-24 14:22 54.39379 -5.98416 3792 ft 232 kts 296°
2026-04-24 14:22 54.40779 -6.03205 3444 ft 218 kts 296°
2026-04-24 14:23 54.41456 -6.05502 3187 ft 217 kts 300°
2026-04-24 14:23 54.42436 -6.07352 3000 ft 209 kts 334°
2026-04-24 14:23 54.43805 -6.07870 2796 ft 199 kts 12°
2026-04-24 14:23 54.45095 -6.07101 2756 ft 197 kts 31°
2026-04-24 14:24 54.46260 -6.05887 2752 ft 198 kts 36°
2026-04-24 14:24 54.47403 -6.04550 2753 ft 198 kts 37°
2026-04-24 14:24 54.48524 -6.03194 2830 ft 197 kts 38°
2026-04-24 14:24 54.49648 -6.01831 2766 ft 197 kts 37°
2026-04-24 14:25 54.50760 -6.00492 2494 ft 193 kts 37°
2026-04-24 14:25 54.51844 -5.99191 2237 ft 188 kts 37°
2026-04-24 14:25 54.52896 -5.97931 2011 ft 181 kts 37°
2026-04-24 14:25 54.53906 -5.96724 1755 ft 169 kts 37°
2026-04-24 14:26 54.54819 -5.95631 1529 ft 153 kts 37°
2026-04-24 14:26 54.55644 -5.94641 1311 ft 139 kts 37°
2026-04-24 14:26 54.56433 -5.93693 1141 ft 136 kts 37°
2026-04-24 14:26 54.57205 -5.92766 976 ft 135 kts 36°
2026-04-24 14:27 54.57973 -5.91847 805 ft 134 kts 36°
2026-04-24 14:27 54.58743 -5.90927 626 ft 133 kts 35°
2026-04-24 14:27 54.59486 -5.90031 453 ft 132 kts 36°
2026-04-24 14:27 54.60231 -5.89128 281 ft 130 kts 35°
2026-04-24 14:28 54.60980 -5.88245 102 ft 129 kts 34°
2026-04-24 14:28 54.61698 -5.87385 20 ft 114 kts 35°
2026-04-24 14:28 54.62107 -5.86895 16 ft 39 kts 34°
2026-04-24 14:28 54.62208 -5.86774 17 ft 7 kts 36°
2026-04-24 14:29 54.62239 -5.86713 18 ft 6 kts 60°
2026-04-24 14:29 54.62257 -5.86714 18 ft 4 kts 241°
2026-04-24 14:29 54.62210 -5.86774 17 ft 11 kts 214°
2026-04-24 14:29 54.62130 -5.86866 16 ft 15 kts 214°
2026-04-24 14:30 54.62034 -5.86981 16 ft 17 kts 214°
2026-04-24 14:30 54.61930 -5.87106 18 ft 18 kts 214°
2026-04-24 14:30 54.61846 -5.87174 19 ft 12 kts 162°
2026-04-24 14:30 54.61782 -5.87051 17 ft 15 kts 124°
2026-04-24 14:31 54.61717 -5.87005 16 ft 11 kts 206°
2026-04-24 14:31 54.61648 -5.87081 16 ft 12 kts 214°
2026-04-24 14:31 54.61601 -5.87125 16 ft 5 kts 168°
2026-04-24 14:31 54.61577 -5.87077 16 ft 4 kts 126°
2026-04-24 14:32 54.61569 -5.87057 16 ft 0 kts 125°